• In Germany
  • List of Countries
  • For 7 days
  • Water Temperature
  • Satellite Maps
  • Weather Map
  • Weather Widgets
  • user-avatar
    Login

    Hourly Weather Albany

    Today, 20 September, Wednesday

    Time Temperature Precipitation Wind Pressure Humidity
    00:00 +12°C° 0.1 mm 5 mps 755 mmHg 85%
    01:00 +12°C° 0.1 mm 5 mps 755 mmHg 85%
    02:00 +12°C° 0 mm 5 mps 754 mmHg 86%
    03:00 +12°C° 0.1 mm 5 mps 754 mmHg 85%
    04:00 +12°C° 0.1 mm 5 mps 754 mmHg 85%
    05:00 +12°C° 0.1 mm 5 mps 754 mmHg 84%
    06:00 +13°C° 0.1 mm 5 mps 754 mmHg 82%
    07:00 +13°C° 0.1 mm 5 mps 755 mmHg 80%
    08:00 +14°C° 0 mm 7 mps 754 mmHg 75%
    09:00 +15°C° 0.1 mm 6 mps 754 mmHg 69%
    10:00 +17°C° 0.1 mm 6 mps 754 mmHg 63%
    11:00 +19°C° 0.1 mm 6 mps 754 mmHg 57%
    12:00 +19°C° 0 mm 5 mps 754 mmHg 58%
    13:00 +19°C° 0 mm 5 mps 754 mmHg 58%
    14:00 +19°C° 0 mm 4 mps 753 mmHg 58%
    15:00 +19°C° 0 mm 4 mps 753 mmHg 61%
    16:00 +19°C° 0 mm 3 mps 753 mmHg 64%
    17:00 +19°C° 0 mm 2 mps 752 mmHg 68%
    18:00 +18°C° 0 mm 3 mps 752 mmHg 71%
    19:00 +17°C° 0 mm 4 mps 752 mmHg 74%
    20:00 +15°C° 0 mm 5 mps 752 mmHg 77%
    21:00 +15°C° 0.1 mm 5 mps 752 mmHg 80%
    22:00 +15°C° 0.1 mm 6 mps 752 mmHg 83%
    23:00 +16°C° 0.1 mm 7 mps 751 mmHg 85%

    Tomorrow, 21 September, Thursday

    Time Temperature Precipitation Wind Pressure Humidity
    00:00 +15°C° 0 mm 7 mps 751 mmHg 86%
    01:00 +15°C° 0 mm 6 mps 750 mmHg 87%
    02:00 +15°C° 0 mm 6 mps 750 mmHg 89%
    03:00 +15°C° 0.9 mm 6 mps 749 mmHg 90%
    04:00 +15°C° 0.9 mm 6 mps 748 mmHg 92%
    05:00 +15°C° 0.9 mm 6 mps 748 mmHg 94%
    06:00 +16°C° 2.1 mm 7 mps 747 mmHg 91%
    07:00 +17°C° 2.1 mm 7 mps 746 mmHg 89%
    08:00 +17°C° 2.1 mm 8 mps 746 mmHg 86%
    09:00 +17°C° 1 mm 9 mps 745 mmHg 86%
    10:00 +17°C° 1 mm 10 mps 745 mmHg 87%
    11:00 +17°C° 1 mm 11 mps 744 mmHg 87%
    12:00 +17°C° 1.1 mm 11 mps 745 mmHg 86%
    13:00 +16°C° 1.1 mm 11 mps 745 mmHg 85%
    14:00 +15°C° 1.1 mm 12 mps 745 mmHg 85%
    15:00 +16°C° 0 mm 11 mps 745 mmHg 76%
    16:00 +17°C° 0 mm 10 mps 745 mmHg 68%
    17:00 +17°C° 0 mm 10 mps 746 mmHg 59%
    18:00 +16°C° 0 mm 9 mps 746 mmHg 62%
    19:00 +15°C° 0 mm 9 mps 746 mmHg 64%
    20:00 +13°C° 0 mm 9 mps 747 mmHg 67%
    21:00 +13°C° 0.1 mm 9 mps 747 mmHg 69%
    22:00 +12°C° 0.1 mm 9 mps 747 mmHg 71%
    23:00 +12°C° 0.1 mm 8 mps 747 mmHg 73%

    Day after tomorrow, 22 September, Friday

    Time Temperature Precipitation Wind Pressure Humidity
    00:00 +12°C° 0.1 mm 8 mps 746 mmHg 74%
    01:00 +12°C° 0.1 mm 8 mps 746 mmHg 75%
    02:00 +12°C° 0.1 mm 8 mps 746 mmHg 75%
    03:00 +12°C° 0.2 mm 8 mps 745 mmHg 75%
    04:00 +12°C° 0.2 mm 9 mps 745 mmHg 75%
    05:00 +12°C° 0.2 mm 9 mps 744 mmHg 75%
    06:00 +12°C° 0.8 mm 9 mps 744 mmHg 81%
    07:00 +12°C° 0.8 mm 9 mps 744 mmHg 86%
    08:00 +11°C° 0.8 mm 9 mps 744 mmHg 91%
    09:00 +12°C° 0.8 mm 10 mps 744 mmHg 86%
    10:00 +12°C° 0.8 mm 10 mps 744 mmHg 81%
    11:00 +13°C° 0.8 mm 11 mps 744 mmHg 76%
    12:00 +13°C° 0.3 mm 11 mps 744 mmHg 71%
    13:00 +14°C° 0.3 mm 12 mps 744 mmHg 66%
    14:00 +15°C° 0.3 mm 12 mps 743 mmHg 61%
    15:00 +14°C° 0.4 mm 12 mps 744 mmHg 64%
    16:00 +13°C° 0.4 mm 11 mps 745 mmHg 68%
    17:00 +13°C° 0.4 mm 10 mps 746 mmHg 72%
    18:00 +12°C° 0.3 mm 9 mps 747 mmHg 76%
    19:00 +11°C° 0.3 mm 9 mps 748 mmHg 80%
    20:00 +11°C° 0.3 mm 9 mps 749 mmHg 84%
    21:00 +10°C° 0.1 mm 9 mps 749 mmHg 82%
    22:00 +10°C° 0.1 mm 9 mps 750 mmHg 81%
    23:00 +10°C° 0.1 mm 9 mps 751 mmHg 79%

    23 September, Saturday

    Time Temperature Precipitation Wind Pressure Humidity
    00:00 +10°C° 0.1 mm 9 mps 751 mmHg 78%
    01:00 +8°C° 0.1 mm 9 mps 751 mmHg 78%
    02:00 +8°C° 0.1 mm 9 mps 751 mmHg 77%
    03:00 +8°C° 0.2 mm 9 mps 751 mmHg 77%
    04:00 +8°C° 0.2 mm 9 mps 751 mmHg 77%
    05:00 +8°C° 0.2 mm 9 mps 751 mmHg 77%
    06:00 +8°C° 0.1 mm 9 mps 752 mmHg 75%
    07:00 +10°C° 0.1 mm 9 mps 752 mmHg 74%
    08:00 +10°C° 0.1 mm 9 mps 753 mmHg 73%
    09:00 +11°C° 0.1 mm 9 mps 753 mmHg 68%
    10:00 +11°C° 0.1 mm 9 mps 753 mmHg 63%
    11:00 +12°C° 0.1 mm 9 mps 753 mmHg 57%
    12:00 +12°C° 0.1 mm 9 mps 753 mmHg 57%
    13:00 +12°C° 0.1 mm 8 mps 753 mmHg 56%
    14:00 +12°C° 0.1 mm 8 mps 752 mmHg 56%
    15:00 +12°C° 0.1 mm 8 mps 753 mmHg 58%
    16:00 +11°C° 0.1 mm 7 mps 753 mmHg 61%
    17:00 +11°C° 0.1 mm 6 mps 753 mmHg 64%
    18:00 +10°C° 0 mm 6 mps 753 mmHg 66%
    19:00 +9°C° 0 mm 5 mps 753 mmHg 69%
    20:00 +8°C° 0 mm 4 mps 753 mmHg 72%
    21:00 +8°C° 0.1 mm 4 mps 752 mmHg 73%
    22:00 +8°C° 0.1 mm 4 mps 752 mmHg 74%
    23:00 +8°C° 0.1 mm 4 mps 751 mmHg 75%

    24 September, Sunday

    Time Temperature Precipitation Wind Pressure Humidity
    00:00 +7°C° 0.6 mm 4 mps 750 mmHg 75%
    01:00 +7°C° 0.6 mm 4 mps 750 mmHg 75%
    02:00 +7°C° 0.6 mm 5 mps 749 mmHg 75%
    03:00 +7°C° 0.2 mm 5 mps 749 mmHg 80%
    04:00 +7°C° 0.2 mm 4 mps 748 mmHg 84%
    05:00 +7°C° 0.2 mm 4 mps 748 mmHg 89%
    06:00 +7°C° 0.1 mm 4 mps 748 mmHg 86%
    07:00 +8°C° 0.1 mm 4 mps 747 mmHg 84%
    08:00 +9°C° 0.1 mm 5 mps 747 mmHg 82%
    09:00 +9°C° 0.7 mm 5 mps 747 mmHg 85%
    10:00 +9°C° 0.7 mm 5 mps 746 mmHg 87%
    11:00 +9°C° 0.7 mm 6 mps 746 mmHg 90%
    12:00 +10°C° 0.8 mm 6 mps 745 mmHg 85%
    13:00 +11°C° 0.8 mm 6 mps 745 mmHg 79%
    14:00 +11°C° 0.8 mm 6 mps 744 mmHg 74%
    15:00 +11°C° 0.4 mm 6 mps 744 mmHg 74%
    16:00 +11°C° 0.4 mm 6 mps 744 mmHg 74%
    17:00 +10°C° 0.4 mm 5 mps 744 mmHg 74%
    18:00 +9°C° 0.3 mm 5 mps 745 mmHg 79%
    19:00 +8°C° 0.3 mm 5 mps 745 mmHg 84%
    20:00 +7°C° 0.3 mm 4 mps 745 mmHg 89%
    21:00 +7°C° 0.3 mm 4 mps 745 mmHg 89%
    22:00 +6°C° 0.3 mm 4 mps 745 mmHg 89%
    23:00 +6°C° 0.3 mm 4 mps 745 mmHg 89%

    25 September, Monday

    Time Temperature Precipitation Wind Pressure Humidity
    00:00 +6°C° 1 mm 5 mps 745 mmHg 90%
    01:00 +5°C° 1 mm 6 mps 745 mmHg 91%
    02:00 +5°C° 1 mm 7 mps 744 mmHg 92%
    03:00 +6°C° 1.7 mm 8 mps 745 mmHg 91%
    04:00 +6°C° 1.7 mm 9 mps 745 mmHg 91%
    05:00 +7°C° 1.7 mm 11 mps 745 mmHg 91%
    06:00 +7°C° 0.7 mm 11 mps 745 mmHg 88%
    07:00 +8°C° 0.7 mm 11 mps 746 mmHg 85%
    08:00 +8°C° 0.7 mm 11 mps 747 mmHg 82%
    09:00 +9°C° 0.1 mm 10 mps 747 mmHg 76%
    10:00 +9°C° 0.1 mm 10 mps 748 mmHg 71%
    11:00 +11°C° 0.1 mm 9 mps 748 mmHg 65%
    12:00 +11°C° 0.1 mm 9 mps 748 mmHg 64%
    13:00 +11°C° 0.1 mm 8 mps 748 mmHg 63%
    14:00 +11°C° 0.1 mm 8 mps 748 mmHg 62%
    15:00 +11°C° 0.1 mm 7 mps 749 mmHg 64%
    16:00 +10°C° 0.1 mm 7 mps 749 mmHg 66%
    17:00 +10°C° 0.1 mm 6 mps 750 mmHg 68%
    18:00 +9°C° 0.1 mm 6 mps 750 mmHg 70%
    19:00 +8°C° 0.1 mm 5 mps 751 mmHg 72%
    20:00 +7°C° 0.1 mm 4 mps 752 mmHg 74%
    21:00 +7°C° 0.4 mm 4 mps 752 mmHg 78%
    22:00 +7°C° 0.4 mm 4 mps 752 mmHg 82%
    23:00 +6°C° 0.4 mm 4 mps 752 mmHg 86%
    Show more